Погода в Пыздрах

Польша     52°10′19″N   17°41′11″E
темп.,
°C
ветер,
м/с
пор.,
м/с
влажн.,
%
обл.,
%
осадки,
мм/ч
давл.,
гПа
погр.,
м
27 февраля, сб
сб2701:00+3з5129244 0.0 1028378
04:00+2зсз613927 0.0 1029476
07:00+3сз6109049 0.0 1030535
10:00+4зсз6982100 0.0 1032589
13:00+7зсз697088 0.0 1033850
16:00+8сз58649 0.0 1033974
19:00+4сз35825 0.0 1034103
22:00+2зсз34880 0.0 103579
28 февраля, вс
вс2801:00+1зсз35901 0.0 103593
04:00+1з478855 0.0 1034216
07:00+1з499758 0.0 1034267
10:00+2з579497 0.0 1034374
13:00+4з579198 0.0 1033465
16:00+4сз4789100 0.0 1032514
19:00+3сз3693100 0.0 1034205
22:00+2сз239330 0.0 103438
1 марта, пн
пн101:00+1сз239316 0.0 103530
04:00+1сз22910 0.0 103522
07:00+1зсз12890 0.0 103622
10:00+6з22720 0.0 1036253
13:00+9зюз34630 0.0 1036434
16:00+9з25690 0.0 1034328
19:00+6зюз23830 0.0 103529
22:00+4зюз34850 0.0 103546
2 марта, вт
вт201:00+3з34840 0.0 103548
04:00+3з33860 0.0 103436
07:00+2зюз33860 0.0 103443
10:00+7з34690 0.0 1034266
13:00+11зсз23570 0.0 1033515
16:00+11з24600 0.0 1032258
19:00+7зсз22730 0.0 103222
22:00+5ссз11780 0.0 103322
3 марта, ср
ср301:00+4всв11820 0.0 103222
04:00+3ю11830 0.0 103122
07:00+3ю11840 0.0 103122
10:00+7ююз12680 0.0 1031226
13:00+11юз12550 0.0 1030560
16:00+11юз12570 0.0 1028403
19:00+7зюз12702 0.0 102722
22:00+6юз23792 0.0 102622